Tracking 30995 objects as of 5-Jul-2025
HD Live streaming from Space Station
objects crossing your sky now

STARLINK-30588

Track STARLINK-30588 now!
10-day predictions
STARLINK-30588 is classified as:


NORAD ID: 58062
Int'l Code: 2023-158M
Perigee: 565.4 km
Apogee: 567.0 km
Inclination: 43.0 °
Period: 95.8 minutes
Semi major axis: 6937 km
RCS: Unknown
Launch date: October 13, 2023
Source: United States (US)
Launch site: AIR FORCE EASTERN TEST RANGE (AFETR)
Your satellite tracking list
STARLINK-30895
Track 1 satellite(s)




NASA's NSSDC Master Catalog

Two Line Element Set (TLE):
1 58062U 23158M   25186.79192642  .00000694  00000-0  66471-4 0  9999
2 58062  43.0029 291.7234 0001156 266.6892  93.3819 15.02537527 96387
Source of the keplerian elements: AFSPC